When you browse on this site, cookies collect data to enhance your experience and personalize the content and advertising you see.
Visit our Privacy Policy to learn more. By continuing to use the site, you agree to this use of cookies and data.
  • In Hungary
  • List of Countries
  • For 7 days
  • Water Temperature
  • Satellite Maps
  • Weather Map
  • News
  • Weather Widgets
  • user-avatar
    Login

    Hourly Weather Castro-Urdiales

    Today, 26 June, Wednesday

    Time Temperature Precipitation Wind Pressure Humidity
    00:00 +20°C° 0 mm 1 mps 760 mmHg 95%
    01:00 +20°C° 0 mm 1 mps 760 mmHg 95%
    02:00 +20°C° 0 mm 1 mps 760 mmHg 95%
    03:00 +20°C° 0 mm 1 mps 760 mmHg 95%
    04:00 +21°C° 0 mm 1 mps 759 mmHg 94%
    05:00 +21°C° 0 mm 1 mps 759 mmHg 93%
    06:00 +22°C° 0 mm 1 mps 759 mmHg 92%
    07:00 +25°C° 0 mm 1 mps 759 mmHg 80%
    08:00 +28°C° 0 mm 2 mps 759 mmHg 67%
    09:00 +31°C° 0 mm 3 mps 759 mmHg 54%
    10:00 +34°C° 0 mm 3 mps 759 mmHg 47%
    11:00 +36°C° 0 mm 4 mps 759 mmHg 40%
    12:00 +38°C° 0 mm 4 mps 759 mmHg 33%
    13:00 +40°C° 0 mm 4 mps 759 mmHg 32%
    14:00 +41°C° 0 mm 4 mps 759 mmHg 30%
    15:00 +41°C° 0 mm 4 mps 758 mmHg 29%
    16:00 +37°C° 0 mm 4 mps 758 mmHg 41%
    17:00 +33°C° 0 mm 4 mps 758 mmHg 53%
    18:00 +29°C° 0 mm 4 mps 758 mmHg 65%
    19:00 +27°C° 0.1 mm 4 mps 759 mmHg 74%
    20:00 +25°C° 0.1 mm 4 mps 760 mmHg 82%
    21:00 +22°C° 0.1 mm 3 mps 760 mmHg 91%
    22:00 +21°C° 0 mm 3 mps 761 mmHg 91%
    23:00 +21°C° 0 mm 3 mps 761 mmHg 92%

    Tomorrow, 27 June, Thursday

    Time Temperature Precipitation Wind Pressure Humidity
    00:00 +21°C° 0 mm 2 mps 761 mmHg 93%
    01:00 +21°C° 0 mm 2 mps 761 mmHg 92%
    02:00 +20°C° 0 mm 2 mps 761 mmHg 91%
    03:00 +21°C° 0 mm 1 mps 761 mmHg 90%
    04:00 +22°C° 0 mm 1 mps 761 mmHg 85%
    05:00 +22°C° 0 mm 1 mps 761 mmHg 81%
    06:00 +23°C° 0 mm 1 mps 761 mmHg 77%
    07:00 +26°C° 0 mm 2 mps 761 mmHg 64%
    08:00 +30°C° 0 mm 3 mps 761 mmHg 51%
    09:00 +34°C° 0 mm 4 mps 761 mmHg 38%
    10:00 +36°C° 0 mm 4 mps 760 mmHg 33%
    11:00 +39°C° 0 mm 5 mps 760 mmHg 27%
    12:00 +41°C° 0 mm 5 mps 760 mmHg 22%
    13:00 +42°C° 0 mm 6 mps 759 mmHg 21%
    14:00 +44°C° 0 mm 6 mps 759 mmHg 19%
    15:00 +45°C° 0 mm 6 mps 758 mmHg 18%
    16:00 +43°C° 0 mm 5 mps 758 mmHg 22%
    17:00 +42°C° 0 mm 4 mps 758 mmHg 25%
    18:00 +40°C° 0 mm 3 mps 758 mmHg 29%
    19:00 +34°C° 0 mm 4 mps 759 mmHg 47%
    20:00 +28°C° 0 mm 5 mps 760 mmHg 65%
    21:00 +21°C° 0 mm 5 mps 761 mmHg 84%
    22:00 +21°C° 0 mm 5 mps 761 mmHg 85%
    23:00 +20°C° 0 mm 5 mps 761 mmHg 86%

    Day after tomorrow, 28 June, Friday

    Time Temperature Precipitation Wind Pressure Humidity
    00:00 +20°C° 0 mm 4 mps 762 mmHg 88%
    01:00 +19°C° 0 mm 4 mps 762 mmHg 87%
    02:00 +19°C° 0 mm 3 mps 762 mmHg 87%
    03:00 +18°C° 0 mm 2 mps 762 mmHg 86%
    04:00 +19°C° 0 mm 2 mps 762 mmHg 83%
    05:00 +20°C° 0 mm 2 mps 762 mmHg 80%
    06:00 +21°C° 0 mm 1 mps 762 mmHg 77%
    07:00 +24°C° 0 mm 1 mps 762 mmHg 67%
    08:00 +26°C° 0 mm 1 mps 762 mmHg 58%
    09:00 +29°C° 0 mm 1 mps 762 mmHg 48%
    10:00 +30°C° 0 mm 2 mps 761 mmHg 46%
    11:00 +31°C° 0 mm 2 mps 761 mmHg 43%
    12:00 +34°C° 0 mm 2 mps 761 mmHg 41%
    13:00 +32°C° 0 mm 2 mps 761 mmHg 43%
    14:00 +31°C° 0 mm 2 mps 760 mmHg 46%
    15:00 +30°C° 0 mm 2 mps 760 mmHg 49%
    16:00 +29°C° 0 mm 2 mps 760 mmHg 55%
    17:00 +27°C° 0 mm 2 mps 760 mmHg 60%
    18:00 +26°C° 0 mm 1 mps 760 mmHg 66%
    19:00 +24°C° 0 mm 2 mps 760 mmHg 75%
    20:00 +21°C° 0 mm 2 mps 761 mmHg 84%
    21:00 +19°C° 0 mm 2 mps 761 mmHg 93%
    22:00 +19°C° 0 mm 2 mps 761 mmHg 93%
    23:00 +19°C° 0 mm 2 mps 761 mmHg 93%

    29 June, Saturday

    Time Temperature Precipitation Wind Pressure Humidity
    00:00 +19°C° 0 mm 2 mps 761 mmHg 92%
    01:00 +20°C° 0 mm 1 mps 761 mmHg 92%
    02:00 +20°C° 0 mm 1 mps 760 mmHg 92%
    03:00 +20°C° 0 mm 1 mps 760 mmHg 92%
    04:00 +20°C° 0 mm 1 mps 760 mmHg 89%
    05:00 +20°C° 0 mm 1 mps 760 mmHg 87%
    06:00 +21°C° 0 mm 1 mps 760 mmHg 85%
    07:00 +23°C° 0 mm 1 mps 760 mmHg 76%
    08:00 +25°C° 0 mm 2 mps 760 mmHg 68%
    09:00 +27°C° 0 mm 2 mps 761 mmHg 59%
    10:00 +27°C° 0 mm 3 mps 760 mmHg 59%
    11:00 +28°C° 0 mm 3 mps 760 mmHg 59%
    12:00 +28°C° 0 mm 3 mps 760 mmHg 59%
    13:00 +28°C° 0 mm 3 mps 760 mmHg 59%
    14:00 +28°C° 0 mm 3 mps 760 mmHg 59%
    15:00 +28°C° 0 mm 2 mps 760 mmHg 60%
    16:00 +27°C° 0 mm 2 mps 760 mmHg 63%
    17:00 +25°C° 0 mm 2 mps 760 mmHg 67%
    18:00 +24°C° 0 mm 2 mps 760 mmHg 70%
    19:00 +21°C° 0 mm 2 mps 761 mmHg 77%
    20:00 +20°C° 0 mm 2 mps 762 mmHg 85%
    21:00 +19°C° 0 mm 1 mps 762 mmHg 92%
    22:00 +19°C° 0 mm 1 mps 762 mmHg 92%
    23:00 +18°C° 0 mm 1 mps 762 mmHg 92%

    30 June, Sunday

    Time Temperature Precipitation Wind Pressure Humidity
    00:00 +18°C° 0 mm 1 mps 762 mmHg 92%
    01:00 +16°C° 0 mm 0 mps 762 mmHg 93%
    02:00 +16°C° 0 mm 0 mps 762 mmHg 93%
    03:00 +15°C° 0 mm 0 mps 762 mmHg 93%
    04:00 +16°C° 0.1 mm 0 mps 762 mmHg 91%
    05:00 +17°C° 0.1 mm 0 mps 762 mmHg 89%
    06:00 +17°C° 0.1 mm 0 mps 762 mmHg 87%
    07:00 +22°C° 0 mm 1 mps 762 mmHg 76%
    08:00 +25°C° 0 mm 1 mps 762 mmHg 66%
    09:00 +27°C° 0 mm 2 mps 762 mmHg 55%
    10:00 +29°C° 0 mm 2 mps 761 mmHg 52%
    11:00 +30°C° 0 mm 3 mps 761 mmHg 49%
    12:00 +33°C° 0 mm 3 mps 761 mmHg 45%
    13:00 +31°C° 0 mm 3 mps 760 mmHg 49%
    14:00 +30°C° 0 mm 3 mps 760 mmHg 53%
    15:00 +29°C° 0 mm 2 mps 760 mmHg 56%
    16:00 +28°C° 0 mm 2 mps 760 mmHg 61%
    17:00 +27°C° 0 mm 1 mps 760 mmHg 65%
    18:00 +25°C° 0 mm 1 mps 760 mmHg 70%
    19:00 +24°C° 0.3 mm 2 mps 760 mmHg 77%
    20:00 +21°C° 0.3 mm 3 mps 761 mmHg 85%
    21:00 +20°C° 0.3 mm 3 mps 762 mmHg 93%
    22:00 +20°C° 0.1 mm 3 mps 762 mmHg 93%
    23:00 +20°C° 0.1 mm 3 mps 762 mmHg 93%

    1 July, Monday

    Time Temperature Precipitation Wind Pressure Humidity
    00:00 +20°C° 0.1 mm 2 mps 762 mmHg 94%
    01:00 +19°C° 0 mm 2 mps 762 mmHg 94%
    02:00 +19°C° 0 mm 2 mps 762 mmHg 95%
    03:00 +19°C° 0 mm 2 mps 762 mmHg 95%
    04:00 +19°C° 0.1 mm 2 mps 762 mmHg 95%
    05:00 +19°C° 0.1 mm 2 mps 762 mmHg 94%
    06:00 +19°C° 0.1 mm 2 mps 762 mmHg 94%
    07:00 +20°C° 0.1 mm 2 mps 762 mmHg 93%
    08:00 +20°C° 0.1 mm 2 mps 763 mmHg 92%
    09:00 +20°C° 0.1 mm 2 mps 763 mmHg 91%
    10:00 +21°C° 0.3 mm 2 mps 763 mmHg 89%
    11:00 +21°C° 0.3 mm 3 mps 763 mmHg 86%
    12:00 +22°C° 0.3 mm 3 mps 763 mmHg 84%
    13:00 +22°C° 0.4 mm 3 mps 762 mmHg 84%
    14:00 +22°C° 0.4 mm 3 mps 762 mmHg 85%
    15:00 +22°C° 0.4 mm 3 mps 762 mmHg 85%
    16:00 +21°C° 0.1 mm 3 mps 762 mmHg 87%
    17:00 +21°C° 0.1 mm 3 mps 762 mmHg 88%
    18:00 +20°C° 0.1 mm 3 mps 762 mmHg 90%
    19:00 +20°C° 0.3 mm 2 mps 762 mmHg 92%
    20:00 +19°C° 0.3 mm 2 mps 763 mmHg 94%
    21:00 +19°C° 0.3 mm 2 mps 763 mmHg 97%
    22:00 +19°C° 0.4 mm 2 mps 763 mmHg 96%
    23:00 +20°C° 0.4 mm 1 mps 763 mmHg 96%
    Show more